This is the latest recevied weather packets stored in our database for station/object KF4ERV-4. If no packets are shown the sender has not sent any weather packets the latest 10 day(s).
| Time | Temp. | Humidity | Pressure | Rain* | Wind** | Luminosity | Snow |
|---|---|---|---|---|---|---|---|
| 1787408203 | 25° C | 5% | 1014.9 hPa | 0 mm | - | - | - |
| 1787408076 | 25° C | 5% | 1014.9 hPa | 0 mm | - | - | - |
| 1787407040 | 23.89° C | 49% | 1015 hPa | 0 mm | - | - | - |
| 1787405303 | 23.33° C | 41% | 1016.1 hPa | 0 mm | - | - | - |
| 1787404176 | 22.78° C | 41% | 1015.9 hPa | 0 mm | - | - | - |
| 1787403865 | 22.22° C | 42% | 1015.9 hPa | 0 mm | - | - | - |
| 1787403041 | 21.67° C | 48% | 1015.9 hPa | 0 mm | - | - | - |
| 1787402974 | 21.67° C | 48% | 1015.9 hPa | 0 mm | - | - | - |
| 1787402665 | 21.67° C | 54% | 1015.9 hPa | 0 mm | - | - | - |
| 1787402381 | 21.11° C | 57% | 1016.1 hPa | 0 mm | - | - | - |
| 1787401823 | 21.11° C | 57% | 1016.1 hPa | 0 mm | - | - | - |
| 1787401769 | 21.11° C | 57% | 1016.1 hPa | 0 mm | - | - | - |
| 1787401470 | 21.11° C | 58% | 1016 hPa | 0 mm | - | - | - |
| 1787401231 | 21.11° C | 60% | 1016 hPa | 0 mm | - | - | - |
| 1787401177 | 21.11° C | 60% | 1016 hPa | 0 mm | - | - | - |
| 1787400874 | 21.11° C | 59% | 1015.9 hPa | 0 mm | - | - | - |
| 1787400664 | 21.11° C | 60% | 1015.9 hPa | 0 mm | - | - | - |
| 1787400378 | 20.56° C | 61% | 1016 hPa | 0 mm | - | - | - |
| 1787400100 | 20.56° C | 63% | 1015.9 hPa | 0 mm | - | - | - |
| 1787399971 | 20.56° C | 63% | 1015.9 hPa | 0 mm | - | - | - |
| 1787399537 | 20.56° C | 62% | 1015.9 hPa | 0 mm | - | - | - |
| 1787399502 | 20.56° C | 62% | 1015.9 hPa | 0 mm | - | - | - |
| 1787399369 | 20.56° C | 62% | 1015.9 hPa | 0 mm | - | - | - |
| 1787399241 | 20.56° C | 62% | 1016 hPa | 0 mm | - | - | - |
| 1787399210 | 20.56° C | 62% | 1016 hPa | 0 mm | - | - | - |
* Rain latest hour (hover to see other rain measurements)
** Current wind speed in m/s (hover to see current wind gust speed)